• In United Kingdom
  • List of Countries
  • For 7 days
  • Water Temperature
  • Satellite Maps
  • Weather Map
  • Weather Widgets
  • user-avatar
    Login

    Hourly Weather Luanda

    Today, 22 November, Wednesday

    Time Temperature Precipitation Wind Pressure Humidity
    00:00 +28°C° 0.1 mm 2 mps 753 mmHg 81%
    01:00 +27°C° 0.1 mm 2 mps 752 mmHg 82%
    02:00 +27°C° 0 mm 2 mps 752 mmHg 82%
    03:00 +27°C° 0 mm 2 mps 752 mmHg 82%
    04:00 +27°C° 0 mm 2 mps 752 mmHg 83%
    05:00 +27°C° 0.1 mm 2 mps 753 mmHg 81%
    06:00 +28°C° 0.1 mm 2 mps 753 mmHg 79%
    07:00 +28°C° 0.1 mm 1 mps 753 mmHg 78%
    08:00 +29°C° 0.2 mm 1 mps 753 mmHg 70%
    09:00 +31°C° 0.2 mm 2 mps 753 mmHg 62%
    10:00 +32°C° 0.2 mm 2 mps 754 mmHg 54%
    11:00 +34°C° 0 mm 2 mps 753 mmHg 51%
    12:00 +35°C° 0 mm 3 mps 752 mmHg 48%
    13:00 +36°C° 0 mm 4 mps 752 mmHg 45%
    14:00 +35°C° 0 mm 4 mps 751 mmHg 49%
    15:00 +34°C° 0 mm 5 mps 750 mmHg 52%
    16:00 +33°C° 0 mm 5 mps 750 mmHg 56%
    17:00 +32°C° 0 mm 5 mps 750 mmHg 61%
    18:00 +30°C° 0 mm 4 mps 751 mmHg 67%
    19:00 +28°C° 0 mm 4 mps 751 mmHg 72%
    20:00 +28°C° 0 mm 3 mps 752 mmHg 73%
    21:00 +28°C° 0 mm 2 mps 753 mmHg 75%
    22:00 +28°C° 0 mm 2 mps 753 mmHg 77%
    23:00 +28°C° 0.1 mm 2 mps 753 mmHg 78%

    Tomorrow, 23 November, Thursday

    Time Temperature Precipitation Wind Pressure Humidity
    00:00 +28°C° 0.1 mm 2 mps 753 mmHg 79%
    01:00 +27°C° 0.1 mm 1 mps 753 mmHg 80%
    02:00 +27°C° 0 mm 1 mps 753 mmHg 81%
    03:00 +27°C° 0 mm 1 mps 752 mmHg 82%
    04:00 +27°C° 0 mm 1 mps 752 mmHg 82%
    05:00 +27°C° 0 mm 1 mps 752 mmHg 82%
    06:00 +27°C° 0 mm 1 mps 753 mmHg 81%
    07:00 +27°C° 0 mm 1 mps 753 mmHg 81%
    08:00 +28°C° 0 mm 1 mps 753 mmHg 74%
    09:00 +30°C° 0 mm 1 mps 753 mmHg 68%
    10:00 +31°C° 0 mm 1 mps 754 mmHg 62%
    11:00 +32°C° 0.1 mm 1 mps 753 mmHg 58%
    12:00 +34°C° 0.1 mm 2 mps 753 mmHg 53%
    13:00 +35°C° 0.1 mm 3 mps 752 mmHg 49%
    14:00 +35°C° 0.4 mm 3 mps 751 mmHg 52%
    15:00 +34°C° 0.4 mm 4 mps 751 mmHg 56%
    16:00 +33°C° 0.4 mm 4 mps 750 mmHg 59%
    17:00 +32°C° 0 mm 4 mps 751 mmHg 64%
    18:00 +30°C° 0 mm 3 mps 751 mmHg 69%
    19:00 +29°C° 0 mm 3 mps 752 mmHg 74%
    20:00 +28°C° 0 mm 3 mps 752 mmHg 75%
    21:00 +28°C° 0 mm 3 mps 753 mmHg 76%
    22:00 +28°C° 0 mm 2 mps 754 mmHg 77%
    23:00 +28°C° 0 mm 2 mps 753 mmHg 79%

    Day after tomorrow, 24 November, Friday

    Time Temperature Precipitation Wind Pressure Humidity
    00:00 +27°C° 0 mm 2 mps 753 mmHg 80%
    01:00 +27°C° 0 mm 2 mps 753 mmHg 81%
    02:00 +27°C° 0 mm 2 mps 753 mmHg 83%
    03:00 +27°C° 0 mm 2 mps 752 mmHg 84%
    04:00 +27°C° 0 mm 2 mps 752 mmHg 86%
    05:00 +27°C° 0 mm 2 mps 753 mmHg 84%
    06:00 +27°C° 0 mm 2 mps 753 mmHg 82%
    07:00 +28°C° 0 mm 2 mps 754 mmHg 80%
    08:00 +29°C° 0 mm 1 mps 754 mmHg 73%
    09:00 +30°C° 0 mm 1 mps 754 mmHg 66%
    10:00 +32°C° 0 mm 1 mps 754 mmHg 60%
    11:00 +34°C° 0.1 mm 2 mps 754 mmHg 57%
    12:00 +34°C° 0.1 mm 3 mps 753 mmHg 53%
    13:00 +35°C° 0.1 mm 4 mps 752 mmHg 50%
    14:00 +34°C° 0.3 mm 4 mps 752 mmHg 53%
    15:00 +34°C° 0.3 mm 4 mps 751 mmHg 55%
    16:00 +33°C° 0.3 mm 4 mps 751 mmHg 58%
    17:00 +32°C° 0 mm 4 mps 752 mmHg 63%
    18:00 +29°C° 0 mm 3 mps 752 mmHg 69%
    19:00 +28°C° 0 mm 3 mps 753 mmHg 74%
    20:00 +28°C° 0 mm 3 mps 753 mmHg 76%
    21:00 +28°C° 0 mm 2 mps 754 mmHg 77%
    22:00 +28°C° 0 mm 2 mps 754 mmHg 78%
    23:00 +27°C° 0.1 mm 2 mps 754 mmHg 79%

    25 November, Saturday

    Time Temperature Precipitation Wind Pressure Humidity
    00:00 +27°C° 0.1 mm 2 mps 754 mmHg 80%
    01:00 +27°C° 0.1 mm 2 mps 753 mmHg 82%
    02:00 +27°C° 0.1 mm 2 mps 753 mmHg 83%
    03:00 +27°C° 0.1 mm 2 mps 753 mmHg 84%
    04:00 +26°C° 0.1 mm 2 mps 753 mmHg 85%
    05:00 +27°C° 0.2 mm 2 mps 753 mmHg 83%
    06:00 +27°C° 0.2 mm 2 mps 754 mmHg 82%
    07:00 +27°C° 0.2 mm 1 mps 754 mmHg 81%
    08:00 +29°C° 0 mm 1 mps 754 mmHg 73%
    09:00 +30°C° 0 mm 1 mps 755 mmHg 65%
    10:00 +32°C° 0 mm 1 mps 755 mmHg 57%
    11:00 +32°C° 0.2 mm 2 mps 754 mmHg 58%
    12:00 +31°C° 0.2 mm 2 mps 753 mmHg 59%
    13:00 +31°C° 0.2 mm 3 mps 753 mmHg 60%
    14:00 +30°C° 0.1 mm 3 mps 752 mmHg 61%
    15:00 +30°C° 0.1 mm 3 mps 752 mmHg 63%
    16:00 +30°C° 0.1 mm 3 mps 751 mmHg 64%
    17:00 +29°C° 0 mm 3 mps 752 mmHg 67%
    18:00 +28°C° 0 mm 3 mps 753 mmHg 71%
    19:00 +27°C° 0 mm 2 mps 753 mmHg 75%
    20:00 +27°C° 0 mm 2 mps 754 mmHg 77%
    21:00 +27°C° 0 mm 2 mps 754 mmHg 79%
    22:00 +27°C° 0 mm 2 mps 755 mmHg 81%
    23:00 +27°C° 0 mm 2 mps 755 mmHg 81%

    26 November, Sunday

    Time Temperature Precipitation Wind Pressure Humidity
    00:00 +27°C° 0 mm 2 mps 754 mmHg 82%
    01:00 +27°C° 0 mm 1 mps 754 mmHg 82%
    02:00 +26°C° 0.6 mm 1 mps 754 mmHg 84%
    03:00 +26°C° 0.6 mm 1 mps 753 mmHg 86%
    04:00 +26°C° 0.6 mm 1 mps 753 mmHg 89%
    05:00 +26°C° 1.5 mm 1 mps 754 mmHg 88%
    06:00 +26°C° 1.5 mm 2 mps 754 mmHg 88%
    07:00 +26°C° 1.5 mm 2 mps 755 mmHg 88%
    08:00 +26°C° 0.9 mm 2 mps 755 mmHg 86%
    09:00 +26°C° 0.9 mm 2 mps 755 mmHg 85%
    10:00 +26°C° 0.9 mm 2 mps 756 mmHg 84%
    11:00 +26°C° 0.6 mm 2 mps 755 mmHg 85%
    12:00 +26°C° 0.6 mm 2 mps 755 mmHg 86%
    13:00 +25°C° 0.6 mm 2 mps 754 mmHg 87%
    14:00 +25°C° 0.4 mm 2 mps 754 mmHg 87%
    15:00 +26°C° 0.4 mm 2 mps 754 mmHg 87%
    16:00 +26°C° 0.4 mm 2 mps 753 mmHg 87%
    17:00 +25°C° 0.1 mm 2 mps 754 mmHg 88%
    18:00 +25°C° 0.1 mm 2 mps 754 mmHg 89%
    19:00 +25°C° 0.1 mm 1 mps 755 mmHg 91%
    20:00 +25°C° 0 mm 2 mps 755 mmHg 91%
    21:00 +24°C° 0 mm 2 mps 755 mmHg 91%
    22:00 +24°C° 0 mm 2 mps 756 mmHg 92%
    23:00 +24°C° 0 mm 2 mps 755 mmHg 91%

    27 November, Monday

    Time Temperature Precipitation Wind Pressure Humidity
    00:00 +24°C° 0 mm 2 mps 755 mmHg 91%
    01:00 +24°C° 0 mm 2 mps 754 mmHg 91%
    02:00 +24°C° 0 mm 2 mps 754 mmHg 90%
    03:00 +24°C° 0 mm 2 mps 754 mmHg 90%
    04:00 +24°C° 0 mm 2 mps 754 mmHg 90%
    05:00 +24°C° 0 mm 2 mps 754 mmHg 88%
    06:00 +24°C° 0 mm 2 mps 755 mmHg 86%
    07:00 +25°C° 0 mm 2 mps 755 mmHg 84%
    08:00 +27°C° 0 mm 2 mps 755 mmHg 75%
    09:00 +28°C° 0 mm 2 mps 755 mmHg 67%
    10:00 +30°C° 0 mm 1 mps 755 mmHg 58%
    11:00 +31°C° 0 mm 2 mps 754 mmHg 53%
    12:00 +32°C° 0 mm 2 mps 754 mmHg 48%
    13:00 +35°C° 0 mm 2 mps 753 mmHg 42%
    14:00 +34°C° 0 mm 3 mps 752 mmHg 43%
    15:00 +34°C° 0 mm 4 mps 752 mmHg 45%
    16:00 +33°C° 0 mm 5 mps 752 mmHg 46%
    17:00 +32°C° 0 mm 4 mps 752 mmHg 52%
    18:00 +29°C° 0 mm 4 mps 753 mmHg 59%
    19:00 +27°C° 0 mm 3 mps 753 mmHg 65%
    20:00 +27°C° 0 mm 3 mps 754 mmHg 67%
    21:00 +27°C° 0 mm 2 mps 754 mmHg 69%
    22:00 +26°C° 0 mm 2 mps 754 mmHg 71%
    23:00 +26°C° 0 mm 2 mps 754 mmHg 72%
    Show more